When you browse on this site, cookies collect data to enhance your experience and personalize the content and advertising you see.
Visit our Privacy Policy to learn more. By continuing to use the site, you agree to this use of cookies and data.
  • In Hungary
  • List of Countries
  • For 7 days
  • Water Temperature
  • Satellite Maps
  • Weather Map
  • News
  • Weather Widgets
  • user-avatar
    Login

    Hourly Weather Karima

    Today, 15 December, Saturday

    Time Temperature Precipitation Wind Pressure Humidity
    00:00 +21°C° 0 mm 3 mps 737 mmHg 22%
    01:00 +20°C° 0 mm 3 mps 737 mmHg 22%
    02:00 +20°C° 0 mm 3 mps 737 mmHg 23%
    03:00 +19°C° 0 mm 3 mps 737 mmHg 24%
    04:00 +19°C° 0 mm 3 mps 737 mmHg 25%
    05:00 +19°C° 0 mm 3 mps 737 mmHg 26%
    06:00 +19°C° 0 mm 3 mps 737 mmHg 25%
    07:00 +20°C° 0 mm 3 mps 737 mmHg 25%
    08:00 +21°C° 0 mm 3 mps 737 mmHg 25%
    09:00 +24°C° 0 mm 3 mps 737 mmHg 23%
    10:00 +26°C° 0 mm 3 mps 737 mmHg 21%
    11:00 +28°C° 0 mm 4 mps 738 mmHg 20%
    12:00 +29°C° 0 mm 3 mps 737 mmHg 18%
    13:00 +30°C° 0 mm 3 mps 736 mmHg 17%
    14:00 +31°C° 0 mm 3 mps 736 mmHg 15%
    15:00 +30°C° 0 mm 3 mps 736 mmHg 15%
    16:00 +30°C° 0 mm 3 mps 736 mmHg 15%
    17:00 +29°C° 0 mm 3 mps 735 mmHg 16%
    18:00 +28°C° 0 mm 3 mps 736 mmHg 17%
    19:00 +27°C° 0 mm 3 mps 736 mmHg 18%
    20:00 +25°C° 0 mm 3 mps 737 mmHg 19%
    21:00 +25°C° 0 mm 3 mps 737 mmHg 19%
    22:00 +24°C° 0 mm 3 mps 737 mmHg 20%
    23:00 +22°C° 0 mm 3 mps 737 mmHg 21%

    Tomorrow, 16 December, Sunday

    Time Temperature Precipitation Wind Pressure Humidity
    00:00 +22°C° 0 mm 3 mps 736 mmHg 22%
    01:00 +21°C° 0 mm 3 mps 736 mmHg 23%
    02:00 +21°C° 0 mm 3 mps 736 mmHg 24%
    03:00 +20°C° 0 mm 3 mps 736 mmHg 25%
    04:00 +20°C° 0 mm 3 mps 736 mmHg 27%
    05:00 +19°C° 0 mm 3 mps 736 mmHg 28%
    06:00 +20°C° 0 mm 3 mps 736 mmHg 28%
    07:00 +21°C° 0 mm 3 mps 737 mmHg 27%
    08:00 +21°C° 0 mm 3 mps 737 mmHg 26%
    09:00 +25°C° 0 mm 3 mps 737 mmHg 24%
    10:00 +27°C° 0 mm 3 mps 737 mmHg 22%
    11:00 +29°C° 0 mm 3 mps 737 mmHg 20%
    12:00 +30°C° 0 mm 3 mps 736 mmHg 18%
    13:00 +31°C° 0 mm 3 mps 736 mmHg 16%
    14:00 +33°C° 0 mm 3 mps 735 mmHg 15%
    15:00 +31°C° 0 mm 3 mps 735 mmHg 14%
    16:00 +30°C° 0 mm 3 mps 735 mmHg 14%
    17:00 +30°C° 0 mm 3 mps 735 mmHg 14%
    18:00 +28°C° 0 mm 4 mps 736 mmHg 15%
    19:00 +27°C° 0 mm 4 mps 736 mmHg 16%
    20:00 +26°C° 0 mm 4 mps 737 mmHg 16%
    21:00 +25°C° 0 mm 4 mps 737 mmHg 16%
    22:00 +23°C° 0 mm 4 mps 737 mmHg 16%
    23:00 +23°C° 0 mm 4 mps 737 mmHg 16%

    Day after tomorrow, 17 December, Monday

    Time Temperature Precipitation Wind Pressure Humidity
    00:00 +22°C° 0 mm 4 mps 737 mmHg 17%
    01:00 +21°C° 0 mm 4 mps 737 mmHg 18%
    02:00 +21°C° 0 mm 4 mps 737 mmHg 19%
    03:00 +20°C° 0 mm 4 mps 737 mmHg 19%
    04:00 +19°C° 0 mm 4 mps 737 mmHg 19%
    05:00 +19°C° 0 mm 4 mps 737 mmHg 19%
    06:00 +20°C° 0 mm 5 mps 737 mmHg 18%
    07:00 +20°C° 0 mm 5 mps 738 mmHg 17%
    08:00 +21°C° 0 mm 6 mps 738 mmHg 16%
    09:00 +23°C° 0 mm 6 mps 738 mmHg 13%
    10:00 +26°C° 0 mm 7 mps 738 mmHg 11%
    11:00 +28°C° 0 mm 7 mps 738 mmHg 9%
    12:00 +29°C° 0 mm 7 mps 738 mmHg 8%
    13:00 +30°C° 0 mm 7 mps 737 mmHg 7%
    14:00 +32°C° 0 mm 7 mps 736 mmHg 6%
    15:00 +30°C° 0 mm 7 mps 736 mmHg 7%
    16:00 +29°C° 0 mm 6 mps 736 mmHg 7%
    17:00 +28°C° 0 mm 6 mps 736 mmHg 7%
    18:00 +27°C° 0 mm 6 mps 737 mmHg 9%
    19:00 +26°C° 0 mm 6 mps 738 mmHg 11%
    20:00 +23°C° 0 mm 6 mps 738 mmHg 12%
    21:00 +22°C° 0 mm 6 mps 738 mmHg 14%
    22:00 +21°C° 0 mm 6 mps 739 mmHg 16%
    23:00 +21°C° 0 mm 6 mps 739 mmHg 17%

    18 December, Tuesday

    Time Temperature Precipitation Wind Pressure Humidity
    00:00 +20°C° 0 mm 7 mps 738 mmHg 19%
    01:00 +18°C° 0 mm 7 mps 738 mmHg 20%
    02:00 +17°C° 0 mm 7 mps 738 mmHg 21%
    03:00 +17°C° 0 mm 6 mps 738 mmHg 23%
    04:00 +16°C° 0 mm 6 mps 738 mmHg 25%
    05:00 +16°C° 0 mm 6 mps 738 mmHg 26%
    06:00 +16°C° 0 mm 6 mps 739 mmHg 26%
    07:00 +16°C° 0 mm 7 mps 739 mmHg 27%
    08:00 +17°C° 0 mm 7 mps 740 mmHg 27%
    09:00 +20°C° 0 mm 7 mps 740 mmHg 24%
    10:00 +22°C° 0 mm 7 mps 740 mmHg 21%
    11:00 +24°C° 0 mm 7 mps 740 mmHg 18%
    12:00 +26°C° 0 mm 7 mps 739 mmHg 16%
    13:00 +27°C° 0 mm 6 mps 738 mmHg 14%
    14:00 +29°C° 0 mm 6 mps 737 mmHg 12%
    15:00 +28°C° 0 mm 5 mps 737 mmHg 13%
    16:00 +27°C° 0 mm 5 mps 737 mmHg 13%
    17:00 +26°C° 0 mm 4 mps 737 mmHg 14%
    18:00 +25°C° 0 mm 4 mps 737 mmHg 15%
    19:00 +23°C° 0 mm 4 mps 738 mmHg 16%
    20:00 +22°C° 0 mm 4 mps 738 mmHg 18%
    21:00 +21°C° 0 mm 4 mps 738 mmHg 19%
    22:00 +20°C° 0 mm 5 mps 738 mmHg 21%
    23:00 +19°C° 0 mm 5 mps 738 mmHg 23%

    19 December, Wednesday

    Time Temperature Precipitation Wind Pressure Humidity
    00:00 +19°C° 0 mm 5 mps 738 mmHg 25%
    01:00 +17°C° 0 mm 5 mps 737 mmHg 27%
    02:00 +16°C° 0 mm 5 mps 737 mmHg 29%
    03:00 +16°C° 0 mm 5 mps 737 mmHg 31%
    04:00 +15°C° 0 mm 5 mps 737 mmHg 33%
    05:00 +15°C° 0 mm 5 mps 737 mmHg 34%
    06:00 +15°C° 0 mm 5 mps 738 mmHg 33%
    07:00 +16°C° 0 mm 6 mps 738 mmHg 33%
    08:00 +17°C° 0 mm 6 mps 739 mmHg 32%
    09:00 +20°C° 0 mm 6 mps 739 mmHg 28%
    10:00 +22°C° 0 mm 6 mps 739 mmHg 24%
    11:00 +26°C° 0 mm 6 mps 739 mmHg 19%
    12:00 +27°C° 0 mm 5 mps 738 mmHg 18%
    13:00 +28°C° 0 mm 5 mps 737 mmHg 17%
    14:00 +29°C° 0 mm 5 mps 737 mmHg 16%
    15:00 +28°C° 0 mm 4 mps 737 mmHg 15%
    16:00 +28°C° 0 mm 4 mps 737 mmHg 15%
    17:00 +27°C° 0 mm 4 mps 737 mmHg 15%
    18:00 +25°C° 0 mm 4 mps 737 mmHg 16%
    19:00 +23°C° 0 mm 4 mps 737 mmHg 17%
    20:00 +22°C° 0 mm 4 mps 738 mmHg 18%
    21:00 +21°C° 0 mm 5 mps 738 mmHg 20%
    22:00 +20°C° 0 mm 5 mps 738 mmHg 22%
    23:00 +19°C° 0 mm 5 mps 738 mmHg 24%

    20 December, Thursday

    Time Temperature Precipitation Wind Pressure Humidity
    00:00 +19°C° 0 mm 5 mps 737 mmHg 26%
    01:00 +17°C° 0 mm 5 mps 737 mmHg 28%
    02:00 +17°C° 0 mm 5 mps 737 mmHg 30%
    03:00 +16°C° 0 mm 5 mps 737 mmHg 32%
    04:00 +17°C° 0 mm 4 mps 737 mmHg 33%
    05:00 +15°C° 0 mm 4 mps 737 mmHg 34%
    06:00 +16°C° 0 mm 5 mps 738 mmHg 34%
    07:00 +16°C° 0 mm 5 mps 738 mmHg 33%
    08:00 +17°C° 0 mm 6 mps 739 mmHg 32%
    09:00 +20°C° 0 mm 6 mps 739 mmHg 29%
    10:00 +23°C° 0 mm 6 mps 739 mmHg 26%
    11:00 +26°C° 0 mm 6 mps 738 mmHg 22%
    12:00 +27°C° 0 mm 6 mps 738 mmHg 22%
    13:00 +28°C° 0 mm 6 mps 737 mmHg 22%
    14:00 +29°C° 0 mm 6 mps 736 mmHg 22%
    15:00 +29°C° 0 mm 5 mps 736 mmHg 23%
    16:00 +28°C° 0 mm 5 mps 736 mmHg 23%
    17:00 +28°C° 0 mm 4 mps 736 mmHg 24%
    18:00 +26°C° 0 mm 5 mps 736 mmHg 25%
    19:00 +25°C° 0 mm 5 mps 737 mmHg 26%
    20:00 +23°C° 0 mm 5 mps 737 mmHg 27%
    21:00 +22°C° 0 mm 5 mps 737 mmHg 27%
    22:00 +21°C° 0 mm 5 mps 737 mmHg 28%
    23:00 +21°C° 0 mm 5 mps 737 mmHg 29%
    Show more